{"data":{"norad_id":40697,"epoch":"2026-09-20T04:18:45.719712Z","epoch_age_seconds":41901,"freshness":"FRESH","line1":"1 40697U 15028A   26263.17969583  .00000118  00000+0  61692-4 0  9996","line2":"2 40697  98.5664 336.6484 0001133  82.2970 277.8342 14.30816920587317","mean_motion":14.3081692,"eccentricity":0.0001133,"inclination_deg":98.5664,"raan_deg":336.6484,"arg_perigee_deg":82.297,"mean_anomaly_deg":277.8342,"bstar":6.1692e-5,"rev_number":58731,"period_min":100.64180677986,"perigee_km":788.18945527208,"apogee_km":789.81352885438,"semimajor_km":7167.1384920632,"source":"CELESTRAK","updated_at":"2026-09-20T09:00:33.963912Z"}}